Regional Weather Roundup
Issued by NWS Mt. Holly, NJ

Home | Current Version | Previous Version | Text Only | Print | Product List | Glossary On
Versions: 1 2 3 4 5 6 7 8 9 10 11 12 13 14 15 16 17 18 19 20 21 22 23 24 25 26 27 28 29
000
ASUS41 KPHI 251810
RWRPHI

REGIONAL WEATHER ROUNDUP
NATIONAL WEATHER SERVICE MOUNT HOLLY NJ
200 PM EDT SAT OCT 25 2014

NOTE:  "FAIR" INDICATES FEW OR NO CLOUDS BELOW 12,000 FEET WITH NO
SIGNIFICANT WEATHER AND/OR OBSTRUCTIONS TO VISIBILITY.

 * = STATION DOES NOT REPORT PRECIPITATION (E.G. RAIN, SNOW, ETC.)
        OR FOG.

NJZ015>026-251900-
SOUTHERN NEW JERSEY

CITY           SKY/WX    TMP DP  RH WIND       PRES   REMARKS
POMONA         SUNNY     68  44  42 W12       29.78F
6HR MIN TEMP:  43; 6HR MAX TEMP:  68;

RIO GRANDE*    SUNNY     64  43  45 SW9       29.83F
MILLVILLE      SUNNY     67  43  41 W13       29.80F
WRIGHTSTOWN    SUNNY     68  44  42 W10       29.74F HAZE
MOUNT HOLLY    SUNNY     67  43  41 W10       29.77F
TRENTON        SUNNY     67  42  40 W14G20    29.75F
6HR MIN TEMP:  46; 6HR MAX TEMP:  67;


$$
NJZ001>014-251900-
NORTHERN NEW JERSEY

CITY           SKY/WX    TMP DP  RH WIND       PRES   REMARKS
SUSSEX         MOSUNNY   67  42  40 VRB6G21   29.73F
ANDOVER*         N/A     65  41  41 VRB7      29.74F
MORRISTOWN     SUNNY     66  41  39 SW12G17   29.73F
NEWARK         MOSUNNY   68  42  38 SW8       29.73F
TETERBORO      SUNNY     66  41  40 W7        29.72F
CALDWELL       SUNNY     65  39  38 NW9       29.73F
SOMERVILLE     SUNNY     67  42  40 VRB3G17   29.72F
ALLAIRE*       SUNNY     66  43  42 W12       29.74F
TOMS RIVER*    SUNNY     68  43  40 W8        29.76F

$$
PAZ043-044-047-054-055-060>062-066>071-251900-
EASTERN PENNSYLVANIA

CITY           SKY/WX    TMP DP  RH WIND       PRES   REMARKS
PHILADELPHIA   MOSUNNY   69  44  40 SW17G28   29.78F
6HR MIN TEMP:  49; 6HR MAX TEMP:  69;

NORTH PHILA    SUNNY     69  40  34 W16G28    29.78F
BLUE BELL      SUNNY     68  45  42 W9        29.77F
DOYLESTOWN     MOSUNNY   66  43  43 W15       29.76F
QUAKERTOWN*    SUNNY     64  45  48 W9        29.78F
POTTSTOWN      MOSUNNY   66  43  43 SW10G20   29.79F
LANCASTER      SUNNY     66  44  45 W15       29.79F
COATESVILLE    SUNNY     66  46  48 W16       29.80F
READING        SUNNY     68  44  42 SW12G21   29.77F
6HR MIN TEMP:  42; 6HR MAX TEMP:  68;

ALLENTOWN      PTSUNNY   67  42  40 W17       29.76F
6HR MIN TEMP:  40; 6HR MAX TEMP:  68;

MOUNT POCONO   MOSUNNY   59  41  51 W14       29.76F
6HR MIN TEMP:  44; 6HR MAX TEMP:  59;

HAZLETON       MOSUNNY   61  43  51 W7        29.80F
WILKES BARRE   MOSUNNY   63  42  46 SW12G17   29.74F

$$
DEZALL-MDZ008-012-015-019-020-251900-
DELAWARE AND EASTERN MARYLAND

CITY           SKY/WX    TMP DP  RH WIND       PRES   REMARKS
WILMINGTON     SUNNY     68  44  42 W8        29.81F
6HR MIN TEMP:  43; 6HR MAX TEMP:  69;

DOVER          SUNNY     68  45  43 W13       29.79F
GEORGETOWN     SUNNY     68  44  42 SW8       29.83F
6HR MIN TEMP:  46; 6HR MAX TEMP:  68;

PATUXENT       MOSUNNY   69  44  40 W6        29.86F
OCEAN CITY     SUNNY     68  44  42 W6        29.84F
WALLOPS ISLAND SUNNY     69  45  41 W9        29.87F
CAMBRIDGE      SUNNY     70  43  37 W6        29.84F
SALISBURY      SUNNY     71  45  39 W9        29.85F

$$
PAZ001-021-NYZ056-072-MDZ011-DCZ001-251900-
OTHER NEARBY LOCATIONS

CITY           SKY/WX    TMP DP  RH WIND       PRES   REMARKS
HARRISBURG     MOSUNNY   66  43  43 W13       29.79F
STATE COLLEGE  PTSUNNY   64  46  52 W20G30    29.79F
WILLIAMSPORT   SUNNY     68  43  40 W12       29.73F
BINGHAMTON     SUNNY     60  44  55 SW14G22   29.70F
NEW YORK CITY  SUNNY     65  41  41 VRB5      29.75F
BALTIMORE      MOSUNNY   69  43  38 W17G28    29.83F
WASHINGTON DC  MOSUNNY   73  43  33 NW12G17   29.86F

$$



USA.gov is the U.S. government's official web portal to all federal, state and local government web resources and services.